Location: Vihti�l�
(61.3833°N, 23.0667°E)
Time: 04:44:34
(UTC+00:00)

Lacrosse 5 - Pass Details

Date: 29 November 2020
Orbit: 713 x 726 km, 57.0° (Epoch: 18 January)

Event Time Altitude Azimuth Distance (km) Brightness Sun altitude
Exits shadow 02:52:52 10° 168° (SSE) 2,193 4.4 -28.7°
Reaches altitude 10° 02:52:53 10° 168° (SSE) 2,190 4.4 -28.7°
Maximum altitude 02:55:46 15° 133° (SE) 1,849 4.4 -28.4°
Drops below altitude 10° 02:58:39 10° 97° (E) 2,197 5.3 -28.0°
Sets 03:01:55 0° 76° (ENE) 3,122 6.4 -27.6°
